Location: Unspecified
(35.6497°N, 0.0000°E)
Time: 21:52:41
(UTC+00:00)

CZ-6A DEB - Visible Passes

Search period start: 04 April 2026 00:00
Search period end: 14 April 2026 00:00
Orbit: 742 x 831 km, 98.7° (Epoch: 29 March)

Date Brightness Start Highest point End Pass type
(mag) Time Alt. Az. Time Alt. Az. Time Alt. Az.
4 Apr ? 19:52:28 10° SSW 19:56:49 25° W 20:01:09 10° NW visible
5 Apr ? 19:20:47 10° S 19:25:59 49° W 19:31:08 10° NNW visible
6 Apr ? 18:49:53 10° SSE 18:55:16 83° ENE 19:00:35 10° NNW visible
7 Apr ? 20:00:09 10° SW 20:04:08 21° W 20:08:06 10° NW visible
8 Apr ? 19:28:13 10° S 19:33:16 42° W 19:38:16 10° NNW visible
9 Apr ? 18:57:09 10° SSE 19:02:31 84° WSW 19:07:49 10° NNW visible
10 Apr ? 20:07:54 10° SW 20:11:26 18° W 20:14:57 10° NW visible
11 Apr ? 19:35:40 10° SSW 19:40:32 35° W 19:45:20 10° NNW visible
12 Apr ? 19:04:25 10° S 19:09:45 72° WSW 19:14:59 10° NNW visible
13 Apr ? 20:15:45 10° SW 20:18:42 15° W 20:21:39 10° WNW visible
